Location: *
(35.2348°S, 91.3916°E)
Time: 07:53:33
(UTC+00:00)

EO 1 Delta rocket - Pass Details

Date: 23 October 2019
Orbit: 698 x 1791 km, 95.4° (Epoch: 19 November)

Event Time Altitude Azimuth Distance (km) Brightness Sun altitude
Rises 12:41:39 0° 170° (S) 4,150 7.9 -5.9°
Reaches altitude 10° 12:44:36 10° 168° (SSE) 3,015 7.2 -6.5°
Maximum altitude 12:51:17 74° 83° (E) 967 4.4 -7.7°
Drops below altitude 10° 12:56:30 10° 357° (N) 2,378 6.4 -8.7°
Sets 12:58:36 0° 355° (N) 3,219 7.1 -9.1°
